Wind_Speed
8 2 10 9 12 11 8 7 2 12 11 11 10 6 7 9 7 6 7 8 8 7 8 5 6 6 5 5 5 6 6 5 4 3 4 6 5 7 9 9 9 2 1 6
8 2 10 12 9 7 6 6 7 8 8 4 5 6 8 15 11 7 8 9 10 9 9 8 7 5 2 2 1 1 2 4 4 5 4 8 10 11 12 10 7 4 7 7
5 9 11 15 13 6 5 6 13 11 6 2 2 2 5 8 14 14 8 6 8 8 8 5 7 6 7 6 4 5 7 7 7 8 10 12 14 16 17 17 16 13 11 12
10 13 12 17 16 9 6 5 8 10 3 4 6 8 4 7 8 10 10 11 12 7 7 6 2 6 8 7 6 6 6 8 12 12 13 15 15 17 19 21 21 19 18 13
9 13 15 16 20 15 10 5 5 7 9 7 6 8 9 7 8 10 10 11 11 6 7 5 4 7 7 8 7 8 9 14 18 17 18 17 21 20 23 30 29 28 25 20
18 17 18 16 22 20 12 9 10 7 10 9 10 9 5 6 8 10 10 12 11 7 7 9 7 5 12 12 12 10 10 12 16 18 18 23 30 24 29 33 31 36 23 16
21 18 16 14 19 23 15 10 16 13 13 13 12 8 7 8 8 9 12 13 8 6 10 9 9 13 17 17 18 18 15 17 19 20 21 24 32 24 18 28 13 9 5 14
22 20 17 13 13 20 18 17 17 15 15 13 12 9 5 7 7 8 10 7 7 8 10 12 12 14 16 16 21 18 18 20 22 22 21 22 28 15 12 14 12 10 5 6
23 20 18 16 15 22 22 17 15 19 18 17 12 6 3 5 3 6 6 10 15 13 12 13 17 16 14 13 15 16 17 21 21 20 18 13 15 15 13 10 8 7 6 6
27 23 20 20 21 24 22 18 17 15 16 15 14 15 7 5 4 4 3 9 12 11 12 15 19 16 11 11 14 12 15 20 22 18 14 15 16 16 15 14 11 10 11 13
27 24 24 24 22 21 21 19 20 20 18 14 14 8 11 7 6 7 6 10 11 5 5 8 12 13 11 14 15 12 15 19 21 18 17 15 15 17 17 16 16 17 18 19
26 27 27 26 25 25 22 24 25 20 18 17 15 10 13 12 13 7 5 4 8 11 13 12 12 12 14 16 15 14 19 20 19 19 19 19 19 19 19 17 16 17 18 19
27 27 26 27 27 28 27 25 22 19 19 19 21 4 10 16 15 9 5 5 7 11 14 14 11 10 12 14 14 16 19 20 21 23 23 21 22 24 24 22 22 22 21 22
28 26 25 23 22 25 27 26 23 26 23 22 19 12 11 16 13 12 10 8 9 9 12 14 13 10 11 14 15 16 16 19 22 24 23 23 23 24 23 21 21 25 29 29
25 23 24 23 23 28 28 27 27 29 27 28 23 15 7 9 15 15 12 11 8 9 11 16 9 10 12 13 16 17 19 20 20 21 23 24 25 27 28 29 30 33 34 33
24 20 19 21 23 25 29 31 33 34 33 30 28 25 17 12 12 12 10 6 7 12 13 9 18 17 15 15 15 15 16 18 20 21 22 24 26 29 31 32 32 33 33 34
26 21 20 20 23 28 31 31 35 38 36 35 31 29 19 12 13 10 12 11 12 12 13 13 18 20 17 18 17 17 17 20 22 22 22 24 27 28 31 31 34 34 35 36
29 28 23 22 22 29 30 30 34 38 37 36 37 35 28 19 17 17 18 18 13 11 14 16 19 23 14 17 18 19 20 21 21 20 21 24 28 29 31 31 32 36 36 36
29 29 28 26 26 28 25 24 22 20 26 34 39 38 34 23 22 19 18 19 16 15 19 19 20 28 21 17 17 20 21 19 20 23 24 26 26 27 30 31 34 36 35 36
28 29 30 30 29 29 25 22 22 23 20 27 34 37 36 27 21 16 20 21 19 21 18 16 14 15 17 19 17 21 20 21 22 22 25 27 28 31 34 35 34 34 34 35
34 32 33 35 35 33 30 26 26 24 20 18 23 33 37 27 26 21 24 23 22 20 19 15 26 30 26 26 26 22 21 23 24 25 29 31 33 36 33 34 34 33 34 33
38 39 39 36 37 38 35 33 29 21 19 16 18 19 29 29 31 28 30 28 23 24 25 28 34 35 31 27 24 24 25 25 27 31 35 35 36 30 33 34 33 33 31 31
42 43 41 44 43 41 39 38 36 31 26 18 18 20 19 26 31 33 31 23 27 30 30 33 34 33 32 24 22 23 26 28 29 33 35 32 28 31 34 34 33 32 29 32
35 35 40 41 46 47 45 42 40 38 35 25 21 20 19 22 27 29 31 32 32 35 39 34 30 33 27 25 23 24 24 28 31 34 33 31 29 31 34 32 30 31 34 34
34 38 37 38 41 46 49 49 46 42 37 30 24 23 20 21 25 26 29 29 28 32 34 36 37 36 34 31 24 21 25 30 32 33 33 31 32 33 29 29 30 34 35 38
30 30 33 30 33 39 40 41 46 48 45 37 30 26 26 25 24 27 28 32 34 35 37 40 39 39 37 38 19 18 25 30 33 33 33 33 30 29 29 31 34 35 39 41
Wind_Direction
288 323 188 189 194 209 264 291 258 133 107 83 76 69 26 359 360 51 49 34 24 18 13 23 47 70 80 102 69 36 24 30 17 355 304 279 265 269 267 279 271 36 225 257
283 164 216 166 178 227 263 262 218 173 165 124 83 85 41 27 9 2 26 22 13 8 8 8 11 19 59 114 142 339 1 30 1 314 315 302 288 277 282 275 266 255 243 236
258 218 214 168 191 204 287 263 225 206 197 227 266 66 29 36 42 25 360 24 30 9 351 348 331 333 318 321 332 345 343 336 312 301 294 305 316 318 309 298 292 278 253 253
229 239 225 170 184 193 235 274 253 204 223 238 277 333 5 33 13 352 342 328 332 333 332 327 261 275 294 302 324 325 327 315 298 292 296 306 306 306 300 293 285 276 268 257
247 242 241 190 186 194 210 235 280 216 228 253 278 307 341 3 343 328 317 310 301 284 264 262 261 281 267 279 295 290 308 313 310 301 308 309 310 302 286 296 266 259 258 255
234 229 236 212 195 201 206 227 251 240 258 267 272 279 320 352 21 9 302 289 305 303 249 244 255 243 244 251 258 263 295 302 306 303 313 308 325 315 353 326 262 261 254 258
240 240 245 242 209 209 205 228 247 245 256 259 260 256 246 300 317 341 338 286 262 275 241 241 286 302 290 267 275 277 283 291 311 319 318 315 315 333 351 25 4 292 78 49
237 238 247 249 225 202 213 233 233 240 246 265 271 248 265 293 287 321 312 262 309 302 271 266 293 294 295 289 280 284 269 286 306 318 326 337 352 1 5 13 52 76 63 69
234 235 240 237 227 207 211 225 232 255 266 278 273 272 279 290 309 303 299 252 297 311 270 251 267 278 283 290 274 270 272 286 306 315 324 1 347 342 357 3 10 339 331 334
224 222 229 230 223 212 210 219 236 255 274 282 283 254 178 201 201 226 331 340 322 302 278 258 263 272 281 288 291 284 277 295 310 314 334 346 344 342 343 343 338 330 325 319
227 224 229 230 226 227 211 217 238 247 262 271 272 237 199 202 172 228 297 350 352 348 333 300 278 277 269 282 293 311 309 301 304 318 330 335 340 340 344 340 336 337 332 326
227 223 224 230 226 226 217 218 232 242 260 244 262 247 225 221 215 221 255 311 354 347 344 346 320 297 284 290 297 297 295 295 303 309 313 326 332 334 337 339 339 334 330 328
226 228 224 226 228 230 224 225 238 243 250 259 269 238 262 241 244 229 213 245 298 308 325 334 317 302 297 293 295 293 301 305 306 309 311 316 322 331 331 339 340 339 333 329
226 223 222 232 243 235 233 229 239 244 251 265 269 280 297 248 255 250 231 240 266 296 305 311 311 316 306 295 297 293 294 302 307 306 308 312 323 326 324 327 333 336 334 327
226 225 222 216 215 227 230 235 233 245 249 260 269 263 259 272 261 272 260 247 260 295 318 329 340 331 309 299 287 287 295 303 309 311 316 319 324 323 323 319 319 321 322 319
221 212 213 212 215 220 224 231 238 240 241 253 263 270 261 266 285 282 287 264 264 298 318 330 339 340 322 308 291 292 306 312 307 306 311 317 316 313 310 310 315 320 321 318
211 219 212 214 209 213 224 229 238 243 244 247 258 273 279 278 248 250 271 256 280 298 311 313 310 318 316 302 293 302 309 304 298 300 303 305 304 305 309 311 317 318 317 315
225 226 228 227 222 230 234 241 248 253 256 252 251 263 274 283 278 247 261 260 296 305 298 309 310 314 293 289 300 300 298 291 289 296 303 305 307 308 310 317 319 316 312 310
222 232 235 236 238 244 249 261 270 269 258 249 249 251 263 276 273 273 270 263 279 284 288 305 308 295 278 281 302 301 293 288 298 302 304 309 310 312 312 314 310 308 307 310
236 237 242 245 249 256 263 272 284 290 281 252 247 244 253 268 271 264 263 264 271 274 284 306 328 321 311 294 295 292 287 298 302 303 306 304 311 310 306 302 304 304 310 312
240 243 246 247 250 260 267 271 276 277 275 267 259 245 247 253 254 252 249 259 266 276 274 277 297 309 300 292 286 282 284 296 298 299 302 306 306 304 303 303 303 309 312 313
246 245 243 246 251 256 262 269 272 279 269 266 257 256 242 243 256 259 263 246 255 261 275 279 291 299 295 287 278 273 288 291 294 304 308 308 305 310 307 303 305 308 310 311
246 249 247 244 245 253 258 263 269 275 270 262 259 257 257 249 255 258 263 265 261 267 279 281 286 295 279 277 275 275 283 290 298 301 305 304 309 308 302 303 305 307 310 312
239 245 243 246 246 249 253 257 262 269 275 265 247 248 255 256 254 255 263 275 275 272 278 287 284 284 271 274 271 278 281 293 298 302 304 308 308 303 302 307 310 312 313 314
250 251 250 248 249 248 248 253 258 262 267 267 253 245 244 247 247 247 251 261 264 267 273 278 280 275 268 257 249 267 284 296 299 306 308 306 304 305 308 310 314 314 313 315
253 259 249 244 245 247 251 253 255 259 261 259 258 249 242 244 247 248 250 252 257 261 264 267 268 267 280 295 244 271 290 298 302 305 303 301 304 310 313 316 316 315 315 316
Height
5900 5903 5904 5905 5908 5909 5909 5909 5910 5908 5907 5907 5906 5906 5906 5906 5906 5907 5906 5905 5905 5904 5903 5902 5901 5900 5901 5900 5900 5900 5899 5897 5896 5896 5895 5894 5893 5890 5888 5887 5885 5883 5883 5881
5900 5902 5902 5904 5906 5908 5908 5908 5910 5909 5909 5909 5909 5908 5908 5906 5905 5906 5906 5907 5905 5904 5902 5901 5901 5901 5900 5900 5900 5899 5898 5896 5895 5894 5893 5891 5890 5888 5888 5886 5883 5882 5881 5879
5898 5899 5900 5902 5905 5906 5906 5907 5907 5909 5909 5909 5910 5911 5910 5909 5907 5906 5906 5906 5905 5904 5904 5902 5901 5902 5901 5901 5900 5899 5898 5897 5895 5893 5892 5891 5891 5892 5890 5888 5886 5882 5878 5877
5895 5896 5898 5899 5903 5904 5905 5906 5906 5908 5908 5909 5908 5910 5911 5910 5909 5907 5904 5903 5903 5903 5902 5902 5901 5901 5901 5900 5899 5898 5898 5896 5895 5893 5892 5893 5892 5891 5890 5887 5883 5880 5877 5874
5895 5895 5895 5898 5900 5902 5904 5905 5906 5906 5907 5908 5909 5909 5909 5909 5908 5906 5906 5904 5902 5899 5898 5899 5897 5897 5898 5898 5897 5896 5896 5895 5892 5891 5891 5891 5890 5887 5884 5882 5877 5873 5871 5870
5888 5891 5892 5896 5897 5899 5902 5905 5906 5906 5907 5908 5908 5909 5909 5907 5906 5904 5902 5901 5898 5897 5897 5896 5896 5895 5895 5895 5893 5894 5893 5891 5889 5890 5889 5887 5885 5882 5877 5864 5862 5865 5865 5865
5885 5887 5889 5892 5894 5896 5900 5902 5905 5906 5906 5906 5906 5908 5908 5906 5904 5903 5902 5899 5897 5894 5894 5894 5892 5891 5891 5892 5891 5890 5891 5890 5889 5888 5885 5883 5881 5878 5877 5867 5855 5859 5861 5860
5881 5884 5886 5889 5892 5896 5897 5900 5902 5904 5904 5904 5904 5905 5906 5904 5903 5902 5901 5899 5898 5895 5893 5893 5891 5889 5887 5888 5887 5887 5887 5887 5889 5888 5887 5886 5879 5879 5875 5871 5863 5863 5863 5861
5876 5880 5882 5885 5888 5892 5895 5897 5901 5901 5902 5902 5903 5903 5902 5902 5902 5901 5899 5898 5895 5894 5893 5891 5890 5887 5886 5886 5886 5884 5885 5886 5886 5886 5886 5885 5881 5880 5875 5872 5867 5866 5863 5861
5871 5875 5878 5880 5884 5887 5890 5895 5898 5898 5898 5898 5899 5899 5899 5900 5901 5900 5898 5897 5894 5891 5891 5890 5888 5886 5885 5885 5884 5883 5883 5882 5882 5882 5882 5880 5878 5876 5872 5871 5868 5865 5862 5861
5867 5871 5874 5875 5879 5883 5887 5891 5894 5895 5896 5896 5896 5898 5896 5896 5898 5898 5897 5895 5893 5892 5891 5889 5888 5886 5885 5884 5884 5883 5881 5881 5880 5879 5877 5877 5875 5873 5871 5868 5865 5862 5860 5859
5862 5865 5867 5871 5875 5879 5882 5886 5888 5890 5893 5893 5893 5895 5894 5894 5895 5895 5895 5894 5893 5892 5891 5890 5887 5885 5884 5883 5882 5881 5880 5879 5877 5874 5873 5872 5871 5870 5869 5867 5864 5861 5858 5855
5857 5860 5863 5865 5870 5873 5877 5881 5885 5887 5888 5889 5890 5893 5892 5891 5892 5892 5893 5892 5891 5889 5888 5887 5886 5884 5883 5881 5879 5878 5877 5875 5873 5871 5870 5868 5865 5862 5862 5860 5858 5855 5853 5851
5852 5855 5859 5863 5868 5872 5874 5878 5880 5882 5884 5885 5886 5887 5889 5889 5888 5888 5888 5889 5889 5888 5887 5886 5884 5881 5880 5878 5876 5875 5874 5873 5872 5870 5867 5863 5860 5858 5857 5854 5853 5851 5848 5846
5848 5852 5855 5857 5861 5866 5870 5873 5875 5877 5880 5881 5882 5884 5886 5887 5886 5885 5886 5885 5885 5885 5884 5882 5880 5878 5876 5875 5874 5872 5870 5868 5866 5863 5860 5858 5855 5853 5851 5849 5846 5844 5842 5839
5844 5849 5851 5854 5857 5860 5863 5867 5869 5871 5873 5875 5877 5878 5882 5883 5883 5881 5882 5882 5882 5881 5880 5878 5876 5875 5873 5872 5870 5869 5866 5865 5862 5859 5856 5853 5850 5850 5847 5844 5841 5837 5834 5831
5842 5845 5849 5852 5855 5857 5860 5862 5863 5865 5867 5871 5872 5875 5877 5879 5880 5881 5880 5879 5879 5878 5878 5876 5874 5872 5870 5869 5868 5865 5863 5861 5858 5855 5852 5850 5848 5844 5842 5838 5834 5829 5826 5822
5838 5842 5846 5848 5851 5852 5855 5858 5859 5860 5861 5864 5866 5870 5872 5873 5875 5876 5876 5875 5875 5874 5873 5871 5869 5866 5864 5864 5863 5860 5858 5856 5853 5851 5848 5844 5841 5838 5836 5830 5826 5823 5818 5815
5834 5837 5841 5844 5846 5849 5850 5852 5854 5854 5855 5855 5858 5862 5865 5867 5869 5871 5871 5872 5872 5869 5868 5866 5863 5860 5858 5857 5856 5855 5853 5851 5849 5846 5842 5839 5836 5832 5829 5823 5819 5816 5811 5808
5829 5832 5835 5838 5841 5843 5846 5848 5848 5847 5848 5849 5850 5855 5859 5862 5863 5867 5867 5866 5865 5864 5863 5861 5858 5855 5854 5854 5851 5851 5849 5847 5843 5841 5836 5834 5829 5825 5821 5817 5811 5807 5803 5798
5823 5826 5828 5830 5833 5836 5839 5842 5842 5843 5846 5845 5846 5848 5852 5856 5858 5860 5858 5860 5860 5859 5858 5857 5855 5853 5851 5849 5847 5845 5842 5840 5838 5834 5831 5827 5822 5818 5812 5807 5803 5798 5794 5789
5814 5817 5821 5823 5825 5829 5831 5833 5836 5838 5838 5839 5841 5843 5846 5849 5850 5853 5853 5853 5854 5853 5852 5851 5849 5847 5845 5842 5841 5839 5838 5835 5832 5828 5823 5819 5816 5807 5804 5800 5796 5791 5786 5782
5804 5808 5811 5815 5817 5819 5821 5824 5826 5829 5831 5833 5834 5836 5839 5841 5843 5845 5846 5846 5847 5845 5845 5844 5843 5840 5837 5835 5834 5833 5831 5829 5825 5821 5817 5813 5805 5800 5798 5794 5790 5786 5778 5772
5794 5797 5800 5803 5807 5810 5812 5814 5817 5820 5823 5825 5828 5829 5831 5832 5834 5836 5837 5838 5838 5837 5835 5833 5833 5830 5829 5828 5827 5825 5823 5821 5817 5814 5810 5804 5798 5795 5792 5788 5784 5777 5771 5765
5785 5787 5790 5793 5795 5796 5801 5804 5806 5810 5814 5817 5819 5821 5823 5824 5826 5827 5830 5830 5830 5827 5826 5824 5821 5821 5818 5815 5813 5815 5815 5813 5809 5805 5801 5795 5791 5789 5784 5778 5773 5768 5763 5757
5776 5777 5779 5782 5783 5786 5788 5792 5796 5799 5803 5806 5809 5811 5814 5816 5818 5819 5820 5820 5820 5818 5817 5813 5811 5812 5809 5803 5801 5804 5804 5803 5800 5797 5793 5788 5784 5780 5776 5771 5766 5760 5754 5747